QPF
0.02 0.04 0.08 0.08 0.06 0.06 0.06 0.07 0.07 0.07 0.07 0.06 0.06 0.06 0.07 0.08 0.09 0.10 0.11 0.10 0.10 0.10 0.11 0.11 0.09 0.07 0.10 0.13 0.11 0.14 0.19 0.21 0.25 0.18 0.16 0.12 0.07 0.06 0.06 0.05 0.06 0.05 0.04
0.02 0.04 0.07 0.06 0.04 0.05 0.05 0.06 0.08 0.06 0.06 0.06 0.06 0.07 0.08 0.08 0.08 0.11 0.12 0.13 0.12 0.13 0.15 0.11 0.09 0.07 0.10 0.12 0.10 0.10 0.14 0.23 0.29 0.16 0.13 0.12 0.10 0.09 0.07 0.07 0.06 0.06 0.06
0.02 0.03 0.06 0.06 0.07 0.07 0.06 0.07 0.07 0.07 0.08 0.07 0.09 0.11 0.11 0.09 0.09 0.11 0.12 0.13 0.12 0.11 0.13 0.12 0.10 0.09 0.11 0.14 0.14 0.10 0.11 0.21 0.19 0.13 0.11 0.08 0.09 0.09 0.06 0.06 0.06 0.07 0.06
0.02 0.03 0.06 0.08 0.09 0.10 0.09 0.10 0.11 0.09 0.08 0.08 0.12 0.14 0.11 0.09 0.07 0.09 0.14 0.16 0.13 0.10 0.11 0.10 0.11 0.12 0.12 0.15 0.13 0.09 0.10 0.11 0.12 0.13 0.09 0.06 0.05 0.06 0.06 0.06 0.06 0.08 0.09
0.01 0.03 0.06 0.09 0.08 0.10 0.12 0.15 0.16 0.13 0.09 0.10 0.13 0.13 0.12 0.11 0.09 0.11 0.12 0.12 0.12 0.12 0.12 0.11 0.12 0.13 0.11 0.11 0.11 0.10 0.12 0.12 0.13 0.12 0.08 0.09 0.07 0.07 0.05 0.06 0.08 0.15 0.16
0.01 0.02 0.06 0.09 0.07 0.07 0.07 0.10 0.10 0.11 0.12 0.14 0.13 0.11 0.12 0.14 0.15 0.16 0.15 0.14 0.12 0.14 0.14 0.13 0.13 0.13 0.11 0.11 0.12 0.11 0.12 0.13 0.15 0.12 0.09 0.11 0.09 0.08 0.05 0.05 0.06 0.11 0.13
0.01 0.02 0.04 0.07 0.06 0.06 0.06 0.07 0.06 0.06 0.10 0.14 0.15 0.13 0.12 0.12 0.12 0.13 0.15 0.14 0.12 0.13 0.14 0.15 0.16 0.16 0.14 0.15 0.15 0.13 0.14 0.15 0.17 0.15 0.12 0.14 0.11 0.09 0.07 0.06 0.05 0.06 0.08
0.01 0.02 0.03 0.04 0.04 0.05 0.06 0.07 0.05 0.05 0.08 0.14 0.15 0.12 0.12 0.12 0.13 0.12 0.12 0.15 0.14 0.16 0.18 0.18 0.17 0.18 0.18 0.22 0.23 0.21 0.18 0.18 0.18 0.16 0.13 0.13 0.11 0.11 0.08 0.07 0.06 0.07 0.08
0.01 0.02 0.03 0.02 0.03 0.05 0.07 0.06 0.05 0.04 0.07 0.12 0.15 0.11 0.10 0.11 0.11 0.11 0.11 0.13 0.14 0.19 0.19 0.19 0.19 0.20 0.20 0.28 0.31 0.29 0.26 0.25 0.20 0.18 0.13 0.11 0.11 0.11 0.08 0.08 0.08 0.10 0.14
0.01 0.02 0.03 0.02 0.03 0.03 0.05 0.06 0.06 0.05 0.06 0.08 0.12 0.11 0.09 0.09 0.11 0.11 0.11 0.13 0.15 0.20 0.20 0.26 0.27 0.26 0.28 0.29 0.28 0.30 0.29 0.26 0.21 0.17 0.12 0.10 0.11 0.10 0.10 0.10 0.10 0.10 0.11
0.02 0.02 0.03 0.03 0.03 0.03 0.03 0.05 0.07 0.07 0.07 0.07 0.11 0.14 0.12 0.12 0.15 0.16 0.14 0.15 0.17 0.19 0.22 0.31 0.36 0.31 0.31 0.26 0.22 0.24 0.23 0.21 0.19 0.14 0.13 0.11 0.10 0.09 0.10 0.11 0.09 0.09 0.09
0.02 0.03 0.03 0.03 0.03 0.03 0.04 0.06 0.06 0.06 0.07 0.09 0.09 0.12 0.13 0.13 0.14 0.15 0.16 0.18 0.19 0.22 0.24 0.29 0.29 0.24 0.22 0.20 0.18 0.16 0.16 0.14 0.15 0.13 0.12 0.11 0.09 0.09 0.09 0.10 0.09 0.09 0.10
0.02 0.03 0.04 0.04 0.03 0.03 0.04 0.05 0.06 0.06 0.06 0.07 0.09 0.13 0.15 0.13 0.13 0.14 0.16 0.19 0.20 0.19 0.19 0.21 0.20 0.17 0.15 0.13 0.12 0.10 0.10 0.11 0.11 0.11 0.12 0.10 0.08 0.10 0.09 0.09 0.08 0.07 0.10
0.04 0.04 0.06 0.05 0.04 0.04 0.05 0.06 0.07 0.08 0.06 0.06 0.08 0.09 0.10 0.11 0.13 0.13 0.14 0.18 0.19 0.15 0.16 0.17 0.18 0.16 0.10 0.09 0.08 0.07 0.06 0.08 0.09 0.10 0.12 0.10 0.09 0.09 0.09 0.11 0.10 0.11 0.12
0.06 0.08 0.08 0.06 0.05 0.06 0.06 0.07 0.07 0.08 0.06 0.05 0.06 0.05 0.07 0.09 0.12 0.13 0.13 0.15 0.14 0.11 0.13 0.16 0.17 0.14 0.09 0.08 0.07 0.07 0.07 0.07 0.07 0.09 0.10 0.09 0.07 0.07 0.11 0.11 0.11 0.13 0.12
0.05 0.06 0.05 0.04 0.03 0.05 0.07 0.10 0.09 0.07 0.08 0.05 0.04 0.05 0.06 0.08 0.11 0.16 0.13 0.12 0.11 0.09 0.12 0.18 0.16 0.16 0.11 0.08 0.08 0.08 0.07 0.08 0.08 0.08 0.08 0.06 0.06 0.07 0.08 0.09 0.08 0.08 0.09
0.03 0.03 0.03 0.03 0.02 0.05 0.08 0.09 0.08 0.07 0.06 0.04 0.04 0.05 0.06 0.06 0.10 0.16 0.18 0.14 0.10 0.08 0.13 0.16 0.16 0.18 0.16 0.11 0.09 0.08 0.08 0.06 0.05 0.05 0.05 0.05 0.05 0.05 0.06 0.08 0.08 0.08 0.10
0.02 0.02 0.03 0.02 0.02 0.05 0.08 0.09 0.09 0.07 0.06 0.05 0.04 0.06 0.07 0.08 0.12 0.13 0.16 0.12 0.10 0.08 0.12 0.15 0.17 0.18 0.17 0.13 0.09 0.08 0.07 0.05 0.03 0.02 0.02 0.02 0.02 0.03 0.05 0.06 0.07 0.08 0.09
0.02 0.02 0.02 0.02 0.05 0.11 0.12 0.07 0.07 0.05 0.05 0.04 0.03 0.04 0.05 0.07 0.07 0.07 0.10 0.11 0.10 0.10 0.12 0.14 0.18 0.16 0.14 0.13 0.10 0.07 0.05 0.04 0.02 0.01 0.02 0.02 0.02 0.03 0.03 0.04 0.05 0.07 0.07
0.02 0.02 0.02 0.03 0.07 0.11 0.14 0.06 0.05 0.04 0.03 0.02 0.02 0.02 0.03 0.03 0.04 0.04 0.06 0.06 0.05 0.07 0.12 0.13 0.13 0.13 0.12 0.12 0.08 0.07 0.05 0.04 0.03 0.03 0.02 0.02 0.02 0.02 0.02 0.03 0.05 0.05 0.05
0.01 0.02 0.02 0.02 0.04 0.06 0.07 0.04 0.03 0.04 0.03 0.03 0.01 0.01 0.03 0.04 0.04 0.05 0.05 0.06 0.06 0.06 0.08 0.09 0.08 0.08 0.08 0.07 0.07 0.07 0.06 0.06 0.07 0.06 0.03 0.02 0.02 0.02 0.03 0.04 0.05 0.04 0.03
0.01 0.02 0.03 0.02 0.03 0.04 0.04 0.03 0.03 0.04 0.03 0.03 0.01 0.01 0.02 0.03 0.02 0.02 0.03 0.04 0.05 0.06 0.04 0.04 0.05 0.05 0.05 0.06 0.07 0.08 0.08 0.07 0.07 0.05 0.04 0.03 0.03 0.04 0.04 0.04 0.04 0.04 0.02
0.00 0.01 0.04 0.03 0.01 0.02 0.03 0.03 0.03 0.03 0.02 0.02 0.02 0.02 0.01 0.01 0.01 0.01 0.02 0.03 0.03 0.03 0.03 0.04 0.04 0.04 0.05 0.05 0.06 0.08 0.09 0.08 0.08 0.06 0.04 0.04 0.05 0.05 0.04 0.03 0.03 0.03 0.03
0.00 0.00 0.03 0.04 0.02 0.01 0.01 0.02 0.02 0.02 0.02 0.02 0.02 0.02 0.02 0.01 0.01 0.01 0.02 0.02 0.02 0.02 0.02 0.02 0.02 0.03 0.03 0.03 0.05 0.06 0.07 0.08 0.08 0.07 0.04 0.04 0.03 0.03 0.03 0.03 0.03 0.03 0.03
0.00 0.00 0.00 0.01 0.02 0.02 0.01 0.02 0.03 0.01 0.01 0.02 0.02 0.02 0.03 0.03 0.02 0.01 0.02 0.02 0.02 0.02 0.02 0.03 0.03 0.03 0.03 0.03 0.04 0.05 0.07 0.08 0.08 0.06 0.04 0.04 0.02 0.01 0.02 0.03 0.03 0.04 0.02
0.00 0.00 0.00 0.00 0.00 0.01 0.01 0.02 0.05 0.04 0.03 0.03 0.02 0.02 0.02 0.03 0.03 0.02 0.02 0.02 0.02 0.03 0.04 0.03 0.03 0.04 0.04 0.05 0.05 0.06 0.08 0.09 0.07 0.06 0.04 0.04 0.03 0.02 0.02 0.03 0.03 0.03 0.03
MSLP
1007.19 1006.39 1005.78 1005.40 1005.26 1005.27 1005.29 1005.16 1004.74 1003.92 1002.71 1001.19 999.56 998.04 996.87 996.22 996.20 996.77 997.85 999.22 1000.69 1002.06 1003.22 1004.11 1004.77 1005.30 1005.79 1006.35 1007.04 1007.87 1008.81 1009.78 1010.71 1011.54 1012.24 1012.80 1013.26 1013.65 1014.00 1014.34 1014.67 1014.99 1015.29
1007.12 1006.32 1005.71 1005.38 1005.28 1005.32 1005.34 1005.12 1004.48 1003.32 1001.63 999.54 997.30 995.21 993.58 992.65 992.56 993.29 994.72 996.60 998.64 1000.59 1002.25 1003.55 1004.50 1005.19 1005.75 1006.34 1007.03 1007.86 1008.81 1009.82 1010.81 1011.69 1012.43 1013.01 1013.47 1013.85 1014.18 1014.51 1014.84 1015.19 1015.52
1007.05 1006.27 1005.70 1005.41 1005.36 1005.42 1005.40 1005.07 1004.20 1002.68 1000.52 997.86 995.03 992.39 990.30 989.08 988.90 989.75 991.50 993.84 996.43 998.93 1001.11 1002.84 1004.12 1005.02 1005.71 1006.36 1007.08 1007.93 1008.92 1009.97 1011.00 1011.92 1012.69 1013.29 1013.74 1014.09 1014.40 1014.71 1015.05 1015.42 1015.79
1006.98 1006.24 1005.71 1005.47 1005.46 1005.54 1005.48 1005.04 1003.97 1002.16 999.60 996.48 993.16 990.06 987.60 986.12 985.84 986.77 988.76 991.46 994.48 997.45 1000.08 1002.20 1003.77 1004.90 1005.74 1006.48 1007.26 1008.16 1009.19 1010.28 1011.35 1012.31 1013.08 1013.68 1014.10 1014.42 1014.70 1015.00 1015.34 1015.72 1016.13
1006.90 1006.21 1005.73 1005.52 1005.55 1005.64 1005.57 1005.07 1003.88 1001.89 999.08 995.69 992.07 988.68 985.98 984.34 983.98 984.94 987.06 989.97 993.26 996.52 999.44 1001.83 1003.64 1004.95 1005.93 1006.77 1007.63 1008.59 1009.67 1010.80 1011.90 1012.87 1013.64 1014.21 1014.60 1014.88 1015.12 1015.39 1015.73 1016.12 1016.56
1006.83 1006.18 1005.73 1005.56 1005.61 1005.72 1005.67 1005.16 1003.96 1001.95 999.12 995.68 992.01 988.56 985.80 984.11 983.72 984.65 986.78 989.72 993.07 996.41 999.43 1001.92 1003.84 1005.26 1006.34 1007.28 1008.21 1009.24 1010.36 1011.53 1012.64 1013.60 1014.35 1014.88 1015.22 1015.45 1015.65 1015.88 1016.20 1016.59 1017.04
1006.81 1006.18 1005.76 1005.60 1005.65 1005.78 1005.76 1005.32 1004.23 1002.36 999.71 996.48 993.02 989.76 987.14 985.52 985.14 986.02 988.03 990.83 994.02 997.22 1000.13 1002.55 1004.45 1005.88 1007.00 1007.99 1008.99 1010.07 1011.22 1012.40 1013.51 1014.44 1015.15 1015.62 1015.91 1016.08 1016.23 1016.42 1016.70 1017.08 1017.52
1006.87 1006.25 1005.83 1005.65 1005.70 1005.83 1005.85 1005.53 1004.64 1003.05 1000.78 997.97 994.95 992.09 989.79 988.38 988.06 988.85 990.65 993.15 996.00 998.86 1001.47 1003.66 1005.40 1006.76 1007.86 1008.87 1009.89 1011.00 1012.17 1013.33 1014.41 1015.29 1015.94 1016.35 1016.58 1016.70 1016.79 1016.94 1017.18 1017.52 1017.94
1007.07 1006.45 1006.00 1005.79 1005.80 1005.91 1005.97 1005.77 1005.12 1003.91 1002.12 999.88 997.45 995.15 993.30 992.18 991.96 992.66 994.19 996.29 998.67 1001.06 1003.24 1005.09 1006.59 1007.79 1008.83 1009.82 1010.85 1011.95 1013.10 1014.22 1015.23 1016.04 1016.62 1016.97 1017.15 1017.22 1017.28 1017.39 1017.60 1017.90 1018.27
1007.43 1006.82 1006.34 1006.07 1006.00 1006.07 1006.13 1006.03 1005.61 1004.77 1003.50 1001.88 1000.11 998.43 997.09 996.31 996.21 996.82 998.05 999.71 1001.57 1003.44 1005.14 1006.61 1007.83 1008.86 1009.80 1010.75 1011.76 1012.82 1013.92 1014.97 1015.89 1016.62 1017.12 1017.42 1017.55 1017.61 1017.66 1017.75 1017.94 1018.20 1018.52
1007.95 1007.36 1006.86 1006.53 1006.37 1006.34 1006.36 1006.31 1006.06 1005.55 1004.75 1003.70 1002.55 1001.47 1000.63 1000.18 1000.21 1000.73 1001.68 1002.92 1004.29 1005.65 1006.91 1008.01 1008.98 1009.85 1010.71 1011.60 1012.56 1013.57 1014.58 1015.53 1016.35 1016.98 1017.41 1017.66 1017.79 1017.85 1017.92 1018.03 1018.21 1018.45 1018.73
1008.61 1008.06 1007.55 1007.16 1006.90 1006.76 1006.69 1006.62 1006.48 1006.19 1005.75 1005.17 1004.54 1003.96 1003.55 1003.39 1003.53 1003.98 1004.69 1005.57 1006.52 1007.47 1008.36 1009.18 1009.95 1010.71 1011.50 1012.34 1013.24 1014.18 1015.08 1015.91 1016.60 1017.13 1017.50 1017.73 1017.87 1017.98 1018.10 1018.26 1018.46 1018.69 1018.94
1009.34 1008.85 1008.36 1007.93 1007.57 1007.32 1007.14 1007.00 1006.87 1006.70 1006.48 1006.23 1005.98 1005.78 1005.69 1005.75 1005.97 1006.37 1006.89 1007.51 1008.15 1008.81 1009.45 1010.08 1010.73 1011.43 1012.17 1012.98 1013.82 1014.66 1015.44 1016.13 1016.70 1017.13 1017.44 1017.68 1017.86 1018.04 1018.24 1018.46 1018.71 1018.95 1019.18
1010.05 1009.64 1009.20 1008.75 1008.34 1007.99 1007.69 1007.46 1007.29 1007.15 1007.04 1006.98 1006.96 1006.99 1007.11 1007.31 1007.59 1007.94 1008.34 1008.78 1009.24 1009.72 1010.22 1010.77 1011.38 1012.05 1012.79 1013.56 1014.33 1015.06 1015.72 1016.27 1016.71 1017.05 1017.32 1017.56 1017.81 1018.07 1018.36 1018.67 1018.97 1019.24 1019.45
1010.65 1010.34 1009.96 1009.55 1009.12 1008.70 1008.33 1008.02 1007.78 1007.62 1007.54 1007.55 1007.64 1007.80 1008.02 1008.29 1008.59 1008.92 1009.25 1009.60 1009.96 1010.36 1010.83 1011.36 1011.97 1012.65 1013.38 1014.11 1014.81 1015.43 1015.95 1016.36 1016.69 1016.95 1017.19 1017.45 1017.76 1018.11 1018.48 1018.87 1019.22 1019.51 1019.72
1011.10 1010.87 1010.58 1010.22 1009.82 1009.41 1009.02 1008.66 1008.38 1008.19 1008.10 1008.12 1008.23 1008.43 1008.68 1008.97 1009.28 1009.58 1009.88 1010.19 1010.53 1010.93 1011.40 1011.95 1012.59 1013.28 1013.99 1014.68 1015.28 1015.79 1016.18 1016.47 1016.69 1016.88 1017.10 1017.38 1017.72 1018.13 1018.58 1019.01 1019.40 1019.70 1019.89
1011.37 1011.22 1011.01 1010.73 1010.41 1010.06 1009.70 1009.37 1009.09 1008.90 1008.80 1008.81 1008.92 1009.11 1009.35 1009.63 1009.92 1010.20 1010.49 1010.80 1011.15 1011.56 1012.05 1012.63 1013.27 1013.96 1014.63 1015.24 1015.76 1016.15 1016.42 1016.61 1016.74 1016.88 1017.07 1017.34 1017.71 1018.14 1018.60 1019.05 1019.43 1019.72 1019.90
1011.53 1011.42 1011.28 1011.10 1010.87 1010.62 1010.36 1010.11 1009.89 1009.73 1009.65 1009.67 1009.76 1009.93 1010.15 1010.40 1010.67 1010.94 1011.22 1011.53 1011.89 1012.31 1012.81 1013.39 1014.01 1014.65 1015.25 1015.78 1016.20 1016.49 1016.67 1016.77 1016.84 1016.93 1017.09 1017.34 1017.69 1018.10 1018.53 1018.94 1019.28 1019.53 1019.68
1011.64 1011.55 1011.46 1011.36 1011.24 1011.11 1010.98 1010.84 1010.73 1010.65 1010.62 1010.65 1010.74 1010.89 1011.08 1011.31 1011.55 1011.80 1012.08 1012.39 1012.75 1013.16 1013.64 1014.17 1014.74 1015.31 1015.83 1016.26 1016.58 1016.79 1016.90 1016.95 1016.97 1017.03 1017.16 1017.36 1017.65 1017.98 1018.34 1018.66 1018.92 1019.11 1019.22
1011.78 1011.69 1011.63 1011.59 1011.57 1011.56 1011.56 1011.56 1011.56 1011.57 1011.61 1011.67 1011.77 1011.91 1012.08 1012.27 1012.49 1012.72 1012.99 1013.29 1013.62 1014.01 1014.44 1014.92 1015.40 1015.87 1016.29 1016.64 1016.88 1017.04 1017.11 1017.13 1017.13 1017.16 1017.25 1017.39 1017.58 1017.81 1018.04 1018.24 1018.40 1018.50 1018.56
1012.00 1011.90 1011.85 1011.86 1011.91 1012.00 1012.11 1012.22 1012.33 1012.44 1012.53 1012.63 1012.73 1012.85 1012.99 1013.16 1013.35 1013.57 1013.82 1014.10 1014.41 1014.76 1015.13 1015.53 1015.92 1016.30 1016.63 1016.89 1017.08 1017.21 1017.27 1017.29 1017.30 1017.32 1017.35 1017.42 1017.50 1017.59 1017.67 1017.73 1017.76 1017.78 1017.79
1012.31 1012.22 1012.17 1012.20 1012.29 1012.44 1012.63 1012.83 1013.02 1013.18 1013.32 1013.43 1013.52 1013.62 1013.73 1013.86 1014.03 1014.23 1014.46 1014.73 1015.02 1015.32 1015.64 1015.96 1016.28 1016.56 1016.82 1017.03 1017.19 1017.31 1017.39 1017.44 1017.46 1017.46 1017.46 1017.44 1017.41 1017.35 1017.28 1017.19 1017.10 1017.04 1017.01
1012.68 1012.60 1012.56 1012.60 1012.71 1012.89 1013.12 1013.36 1013.58 1013.77 1013.92 1014.02 1014.09 1014.15 1014.22 1014.32 1014.46 1014.64 1014.86 1015.12 1015.39 1015.67 1015.95 1016.21 1016.46 1016.68 1016.88 1017.06 1017.22 1017.35 1017.46 1017.53 1017.58 1017.59 1017.54 1017.45 1017.31 1017.12 1016.91 1016.69 1016.50 1016.37 1016.31
1013.00 1012.96 1012.95 1012.99 1013.11 1013.30 1013.53 1013.78 1014.02 1014.21 1014.34 1014.41 1014.45 1014.46 1014.49 1014.55 1014.66 1014.82 1015.04 1015.29 1015.56 1015.82 1016.08 1016.31 1016.51 1016.69 1016.86 1017.02 1017.17 1017.32 1017.46 1017.57 1017.64 1017.65 1017.58 1017.42 1017.20 1016.91 1016.58 1016.27 1016.00 1015.82 1015.75
1013.19 1013.21 1013.24 1013.29 1013.42 1013.61 1013.84 1014.09 1014.32 1014.50 1014.61 1014.65 1014.64 1014.61 1014.59 1014.62 1014.70 1014.85 1015.06 1015.32 1015.59 1015.85 1016.09 1016.30 1016.48 1016.63 1016.77 1016.92 1017.07 1017.23 1017.39 1017.52 1017.60 1017.61 1017.52 1017.33 1017.05 1016.69 1016.30 1015.92 1015.61 1015.41 1015.34
1013.19 1013.28 1013.35 1013.44 1013.58 1013.78 1014.02 1014.27 1014.50 1014.67 1014.77 1014.78 1014.75 1014.68 1014.63 1014.62 1014.68 1014.82 1015.03 1015.28 1015.56 1015.82 1016.06 1016.25 1016.40 1016.53 1016.64 1016.76 1016.90 1017.06 1017.22 1017.36 1017.45 1017.46 1017.37 1017.16 1016.84 1016.46 1016.04 1015.64 1015.32 1015.12 1015.06
Thickness
5786 5787 5782 5782 5783 5783 5784 5784 5784 5785 5785 5785 5785 5785 5785 5784 5784 5784 5783 5782 5781 5781 5779 5778 5777 5776 5775 5774 5772 5771 5769 5766 5765 5765 5762 5761 5760 5759 5758 5757 5757 5757 5755
5787 5786 5781 5782 5782 5782 5783 5783 5783 5783 5784 5784 5784 5784 5784 5784 5783 5783 5782 5782 5781 5780 5779 5778 5777 5776 5775 5773 5771 5770 5768 5766 5764 5763 5762 5760 5759 5758 5757 5756 5756 5756 5753
5787 5786 5783 5781 5780 5781 5781 5782 5782 5782 5782 5783 5783 5783 5783 5783 5782 5782 5782 5781 5781 5780 5779 5777 5776 5775 5774 5772 5770 5769 5767 5765 5763 5762 5761 5762 5760 5757 5756 5755 5754 5753 5751
5787 5786 5783 5779 5780 5780 5780 5781 5781 5781 5781 5782 5782 5783 5783 5783 5783 5781 5781 5781 5780 5779 5778 5776 5775 5775 5773 5772 5770 5768 5767 5765 5763 5762 5763 5763 5760 5757 5755 5754 5752 5751 5750
5786 5785 5782 5779 5779 5779 5779 5780 5780 5780 5780 5781 5781 5782 5782 5784 5783 5782 5781 5780 5779 5778 5777 5775 5775 5774 5773 5772 5770 5768 5766 5764 5763 5763 5763 5762 5760 5756 5754 5752 5751 5749 5748
5787 5786 5782 5779 5778 5778 5779 5780 5780 5779 5779 5779 5780 5780 5781 5782 5782 5782 5781 5780 5779 5778 5776 5775 5775 5774 5773 5771 5769 5767 5765 5763 5762 5763 5762 5760 5758 5754 5752 5751 5750 5748 5747
5787 5786 5783 5779 5778 5778 5778 5778 5778 5778 5778 5778 5779 5779 5780 5780 5781 5781 5780 5779 5778 5777 5776 5775 5775 5774 5774 5771 5768 5766 5764 5763 5764 5762 5760 5759 5756 5753 5752 5750 5749 5748 5746
5787 5786 5784 5780 5779 5778 5778 5777 5777 5777 5778 5778 5778 5779 5778 5779 5780 5779 5779 5778 5777 5775 5774 5774 5774 5774 5773 5770 5768 5765 5764 5763 5763 5762 5760 5758 5754 5752 5751 5749 5748 5747 5746
5787 5786 5785 5784 5781 5779 5778 5777 5777 5777 5777 5777 5778 5778 5778 5778 5779 5778 5777 5776 5775 5774 5773 5773 5773 5773 5772 5770 5767 5764 5763 5762 5763 5762 5760 5757 5753 5751 5750 5748 5747 5746 5745
5785 5785 5785 5784 5783 5783 5781 5778 5777 5776 5776 5777 5777 5778 5778 5778 5778 5777 5777 5775 5774 5773 5772 5772 5771 5771 5770 5768 5766 5763 5762 5761 5762 5762 5759 5756 5752 5750 5749 5748 5746 5745 5744
5783 5784 5786 5785 5784 5784 5783 5780 5779 5777 5777 5777 5778 5777 5778 5779 5779 5777 5775 5773 5772 5772 5771 5770 5770 5769 5768 5766 5764 5763 5761 5762 5761 5760 5757 5753 5751 5749 5748 5747 5745 5744 5743
5781 5783 5785 5785 5785 5785 5784 5782 5781 5781 5780 5779 5778 5778 5778 5777 5777 5777 5773 5772 5771 5770 5769 5769 5768 5768 5767 5766 5763 5762 5762 5761 5759 5757 5755 5752 5750 5749 5747 5746 5745 5744 5743
5782 5784 5785 5784 5784 5785 5784 5784 5783 5782 5781 5780 5779 5778 5777 5777 5777 5776 5775 5773 5771 5770 5770 5768 5769 5768 5767 5765 5764 5763 5761 5760 5758 5756 5753 5750 5749 5748 5747 5746 5744 5743 5742
5784 5784 5786 5785 5783 5783 5784 5784 5783 5783 5781 5781 5779 5778 5778 5777 5776 5775 5774 5773 5772 5770 5768 5769 5767 5765 5764 5763 5762 5761 5760 5759 5757 5755 5752 5749 5748 5747 5746 5745 5744 5742 5741
5783 5784 5785 5784 5783 5783 5782 5783 5784 5782 5782 5780 5778 5777 5777 5777 5775 5774 5772 5771 5772 5770 5769 5767 5766 5764 5762 5761 5760 5759 5758 5756 5755 5754 5752 5748 5747 5746 5745 5744 5743 5741 5740
5786 5786 5787 5785 5784 5782 5782 5782 5783 5783 5780 5780 5779 5777 5776 5775 5774 5773 5772 5771 5771 5770 5768 5767 5765 5763 5761 5760 5758 5756 5755 5754 5753 5752 5751 5749 5746 5745 5744 5742 5741 5741 5739
5789 5788 5787 5786 5785 5783 5783 5783 5784 5784 5782 5781 5778 5776 5775 5775 5773 5773 5772 5771 5770 5768 5767 5766 5764 5762 5760 5759 5756 5755 5754 5752 5751 5751 5750 5749 5748 5745 5743 5741 5740 5740 5738
5791 5789 5788 5789 5786 5783 5782 5782 5783 5783 5782 5781 5779 5776 5774 5773 5773 5773 5772 5771 5769 5768 5767 5765 5764 5762 5759 5757 5755 5754 5753 5751 5750 5750 5750 5749 5748 5746 5743 5741 5740 5738 5737
5793 5791 5789 5788 5787 5785 5783 5783 5782 5781 5780 5780 5778 5776 5774 5773 5773 5773 5772 5770 5769 5768 5767 5766 5763 5761 5758 5755 5755 5753 5753 5752 5750 5750 5749 5749 5747 5746 5745 5742 5739 5738 5736
5796 5793 5791 5788 5787 5787 5786 5784 5783 5782 5781 5780 5778 5775 5774 5773 5772 5773 5772 5770 5770 5768 5765 5763 5760 5759 5757 5755 5755 5753 5752 5752 5751 5750 5749 5749 5747 5746 5745 5743 5741 5738 5735
5798 5795 5792 5790 5788 5787 5786 5785 5783 5781 5781 5780 5779 5776 5775 5774 5773 5773 5773 5770 5769 5767 5764 5763 5761 5758 5756 5756 5753 5750 5751 5751 5750 5749 5749 5749 5748 5746 5744 5742 5741 5739 5737
5800 5797 5795 5792 5791 5789 5787 5785 5784 5784 5783 5782 5780 5778 5776 5775 5775 5775 5771 5771 5768 5766 5763 5761 5759 5758 5757 5757 5753 5749 5745 5746 5747 5750 5749 5747 5747 5746 5744 5742 5740 5737 5737
5803 5801 5799 5795 5793 5791 5790 5789 5787 5784 5783 5782 5780 5779 5778 5777 5776 5774 5772 5771 5768 5768 5765 5762 5760 5758 5756 5757 5756 5752 5747 5744 5745 5747 5747 5747 5745 5745 5744 5743 5740 5738 5736
5808 5806 5802 5798 5795 5793 5792 5790 5787 5783 5781 5781 5781 5781 5779 5778 5776 5774 5772 5770 5769 5769 5765 5764 5762 5760 5757 5755 5755 5754 5753 5751 5745 5742 5744 5745 5744 5742 5742 5743 5742 5739 5737
5813 5810 5805 5801 5797 5795 5794 5791 5788 5787 5786 5785 5784 5781 5779 5778 5777 5775 5773 5771 5769 5768 5766 5764 5762 5760 5759 5756 5755 5754 5751 5750 5748 5743 5739 5740 5742 5743 5743 5742 5741 5739 5736
5817 5813 5809 5803 5799 5797 5795 5793 5790 5787 5786 5783 5782 5781 5780 5779 5778 5776 5774 5771 5769 5768 5765 5763 5761 5759 5758 5756 5755 5755 5752 5749 5747 5745 5740 5738 5738 5741 5741 5739 5738 5736 5734